Weather History for Owatonna, MN

Change the Weather History Date:

Thursday, February 14, 2013

  Actual Average Record
Temperature  
Mean Temperature 26 °F -  
Max Temperature 37 °F 29 °F 45 °F (1964)
Min Temperature 15 °F 10 °F -16 °F (1970)
Degree Days  
Heating Degree Days 39    
Moisture  
Dew Point 20 °F    
Average Humidity 69    
Maximum Humidity 81    
Minimum Humidity 46    
Precipitation  
Precipitation 0.00 in - - ()
Sea Level Pressure  
Sea Level Pressure 29.86 in    
Wind  
Wind Speed 12 mph (WNW)    
Max Wind Speed 20 mph    
Max Gust Speed 22 mph    
Visibility 8 miles    
Events Snow    
Averages and records for this station are not official NWS values.
T = Trace of Precipitation, MM = Missing Value Source: NWS Daily Summary

Daily Weather History Graph

Daily Weather History Graph

Search for Another Location

Airport:

Trip Planner

Search our weather history database for the weather conditions in past years. The results will help you decide how hot, cold, wet, or windy it might be!

Date:

Astronomy

Feb. 14, 2013 Rise Set
Actual Time 7:13 AM CST 5:41 PM CST
Civil Twilight 6:43 AM CST 6:11 PM CST
Nautical Twilight 6:09 AM CST 6:45 PM CST
Astronomical Twilight 5:36 AM CST 7:18 PM CST
Moon 9:03 AM CST (2/14) 10:58 PM CST (2/14)
Length of Visible Light 11h 27m
Length of Day
10h 28m
Waxing Crescent, 22% of the Moon is Illuminated
Feb 14
Waxing Crescent
Feb 17
First Quarter
Feb 25
Full
Mar 4
Last Quarter
Mar 11
New

Hourly Weather History & Observations

Time (CST) Temp. Windchill Dew Point Humidity Pressure Visibility Wind Dir Wind Speed Gust Speed Precip Events Conditions
12:13 AM 37.4 °F 30.3 °F 30.2 °F 75% 29.55 in 10.0 mi West 10.4 mph - N/A   Overcast
12:33 AM 37.4 °F 30.8 °F 30.2 °F 75% 29.56 in 7.0 mi West 9.2 mph - N/A   Overcast
12:53 AM 37.4 °F 28.5 °F 30.2 °F 75% 29.56 in 7.0 mi West 15.0 mph - N/A   Overcast
1:14 AM 37.4 °F 29.3 °F 30.2 °F 75% 29.56 in 5.0 mi West 12.7 mph - N/A   Light Drizzle
1:34 AM 35.6 °F 27.5 °F 30.2 °F 81% 29.56 in 3.0 mi West 11.5 mph - N/A   Light Drizzle
1:53 AM 35.6 °F 27.5 °F 30.2 °F 81% 29.57 in 3.0 mi WNW 11.5 mph - N/A   Light Drizzle
2:14 AM 35.6 °F 26.6 °F 30.2 °F 81% 29.58 in 4.0 mi WNW 13.8 mph - N/A Snow Light Snow
2:33 AM 35.6 °F 25.5 °F 30.2 °F 81% 29.59 in 2.5 mi NW 17.3 mph - N/A Snow Light Snow
2:53 AM 35.6 °F 25.2 °F 30.2 °F 81% 29.60 in 1.2 mi NW 18.4 mph - N/A Snow Light Snow
3:13 AM 35.6 °F 25.9 °F 30.2 °F 81% 29.61 in 1.2 mi NW 16.1 mph - N/A Snow Light Snow
3:34 AM 35.6 °F 24.8 °F 28.4 °F 75% 29.63 in 3.0 mi NNW 19.6 mph - N/A Snow Light Snow
3:53 AM 35.6 °F 25.5 °F 28.4 °F 75% 29.64 in 4.0 mi NNW 17.3 mph - N/A Snow Light Snow
4:13 AM 35.6 °F 26.6 °F 28.4 °F 75% 29.65 in 2.5 mi NNW 13.8 mph - N/A Snow Light Snow
4:33 AM 33.8 °F 24.3 °F 28.4 °F 81% 29.67 in 2.5 mi NW 13.8 mph - N/A Snow Light Snow
4:53 AM 33.8 °F 24.3 °F 28.4 °F 81% 29.69 in 2.5 mi NW 13.8 mph - N/A Snow Light Snow
5:13 AM 33.8 °F 24.3 °F 28.4 °F 81% 29.71 in 3.0 mi NW 13.8 mph - N/A Snow Light Snow
5:34 AM 33.8 °F 25.8 °F 26.6 °F 75% 29.72 in 7.0 mi NW 10.4 mph - N/A   Overcast
5:53 AM 33.8 °F 24.8 °F 26.6 °F 75% 29.73 in 10.0 mi NW 12.7 mph - N/A   Overcast
6:13 AM 33.8 °F 24.8 °F 26.6 °F 75% 29.74 in 10.0 mi NNW 12.7 mph - N/A   Overcast
6:33 AM 33.8 °F 23.5 °F 24.8 °F 70% 29.75 in 10.0 mi NW 16.1 mph - N/A   Overcast
6:53 AM 30.2 °F 20.8 °F 24.8 °F 80% 29.76 in 10.0 mi NW 11.5 mph - N/A   Mostly Cloudy
7:13 AM 30.2 °F 23.4 °F 23.0 °F 75% 29.77 in 10.0 mi NW 6.9 mph - N/A   Scattered Clouds
7:34 AM 30.2 °F 21.9 °F 23.0 °F 75% 29.79 in 10.0 mi WNW 9.2 mph - N/A   Mostly Cloudy
7:53 AM 28.4 °F 22.2 °F 21.2 °F 74% 29.79 in 10.0 mi WNW 5.8 mph - N/A   Scattered Clouds
8:14 AM 30.2 °F 23.4 °F 23.0 °F 75% 29.80 in 10.0 mi WNW 6.9 mph - N/A   Clear
8:33 AM 30.2 °F 24.3 °F 23.0 °F 75% 29.80 in 10.0 mi WNW 5.8 mph - N/A   Clear
8:53 AM 30.2 °F 24.3 °F 23.0 °F 75% 29.80 in 10.0 mi WNW 5.8 mph - N/A   Clear
9:14 AM 30.2 °F 21.9 °F 23.0 °F 75% 29.80 in 7.0 mi NW 9.2 mph - N/A   Clear
9:34 AM 30.2 °F 20.8 °F 24.8 °F 80% 29.81 in 10.0 mi NW 11.5 mph - N/A   Clear
9:54 AM 32.0 °F 23.0 °F 24.8 °F 75% 29.82 in 10.0 mi WNW 11.5 mph - N/A   Scattered Clouds
10:13 AM 32.0 °F 23.6 °F 24.8 °F 75% 29.83 in 10.0 mi WNW 10.4 mph - N/A   Scattered Clouds
10:33 AM 30.2 °F 21.3 °F 24.8 °F 80% 29.83 in 10.0 mi WNW 10.4 mph - N/A   Mostly Cloudy
10:53 AM 30.2 °F 20.8 °F 24.8 °F 80% 29.84 in 7.0 mi West 11.5 mph - N/A   Mostly Cloudy
11:13 AM 30.2 °F 21.3 °F 24.8 °F 80% 29.85 in 10.0 mi WNW 10.4 mph - N/A   Mostly Cloudy
11:34 AM 30.2 °F 21.9 °F 23.0 °F 75% 29.86 in 7.0 mi WNW 9.2 mph - N/A   Mostly Cloudy
11:53 AM 30.2 °F 23.4 °F 23.0 °F 75% 29.86 in 7.0 mi WNW 6.9 mph - N/A   Scattered Clouds
12:13 PM 30.2 °F 22.6 °F 23.0 °F 75% 29.86 in 10.0 mi WNW 8.1 mph - N/A   Clear
12:34 PM 32.0 °F 24.2 °F 23.0 °F 69% 29.86 in 10.0 mi West 9.2 mph - N/A   Scattered Clouds
12:53 PM 30.2 °F 20.8 °F 23.0 °F 75% 29.87 in 10.0 mi WNW 11.5 mph - N/A   Clear
1:13 PM 30.2 °F 21.3 °F 21.2 °F 69% 29.87 in 10.0 mi WNW 10.4 mph - N/A   Clear
1:33 PM 30.2 °F 21.3 °F 21.2 °F 69% 29.87 in 10.0 mi WNW 10.4 mph - N/A   Clear
1:53 PM 30.2 °F 20.2 °F 21.2 °F 69% 29.88 in 7.0 mi WNW 12.7 mph - N/A Snow Light Snow
2:13 PM 30.2 °F 20.8 °F 21.2 °F 69% 29.88 in 7.0 mi WNW 11.5 mph - N/A   Clear
2:33 PM 30.2 °F 19.8 °F 21.2 °F 69% 29.89 in 10.0 mi NW 13.8 mph - N/A   Clear
2:53 PM 30.2 °F 19.8 °F 21.2 °F 69% 29.90 in 10.0 mi WNW 13.8 mph - N/A   Clear
3:13 PM 30.2 °F 20.2 °F 21.2 °F 69% 29.91 in 10.0 mi NW 12.7 mph - N/A   Clear
3:33 PM 30.2 °F 19.3 °F 19.4 °F 64% 29.93 in 10.0 mi WNW 15.0 mph - N/A   Clear
3:53 PM 30.2 °F 18.1 °F 19.4 °F 64% 29.94 in 10.0 mi NW 18.4 mph - N/A   Scattered Clouds
4:13 PM 30.2 °F 17.8 °F 19.4 °F 64% 29.95 in 10.0 mi WNW 19.6 mph - N/A   Clear
4:33 PM 28.4 °F 15.8 °F 15.8 °F 59% 29.96 in 10.0 mi WNW 18.4 mph - N/A   Clear
4:53 PM 28.4 °F 15.8 °F 14.0 °F 55% 29.98 in 10.0 mi NW 18.4 mph - N/A   Clear
5:13 PM 28.4 °F 16.6 °F 14.0 °F 55% 29.99 in 10.0 mi NW 16.1 mph 20.7 mph N/A   Clear
5:33 PM 26.6 °F 15.2 °F 12.2 °F 55% 29.99 in 10.0 mi NW 13.8 mph - N/A   Clear
5:53 PM 26.6 °F 13.4 °F 10.4 °F 51% 30.00 in 10.0 mi NW 18.4 mph - N/A   Clear
6:13 PM 26.6 °F 14.7 °F 10.4 °F 51% 30.02 in 10.0 mi NW 15.0 mph - N/A   Clear
6:33 PM 24.8 °F 11.9 °F 8.6 °F 50% 30.03 in 10.0 mi NW 16.1 mph 21.9 mph N/A   Clear
6:53 PM 24.8 °F 13.4 °F 6.8 °F 46% 30.04 in 10.0 mi NW 12.7 mph - N/A   Clear
7:13 PM 23.0 °F 10.6 °F 6.8 °F 50% 30.05 in 10.0 mi NW 13.8 mph - N/A   Clear
7:53 PM 23.0 °F 11.1 °F 5.0 °F 46% 30.07 in 10.0 mi NW 12.7 mph - N/A   Clear
8:14 PM 21.2 °F 8.3 °F 5.0 °F 50% 30.08 in 10.0 mi NW 13.8 mph - N/A   Clear
8:33 PM 21.2 °F 9.5 °F 5.0 °F 50% 30.09 in 10.0 mi WNW 11.5 mph - N/A   Clear
8:54 PM 19.4 °F 7.9 °F 5.0 °F 54% 30.09 in 10.0 mi WNW 10.4 mph - N/A   Clear
9:13 PM 19.4 °F 7.2 °F 6.8 °F 58% 30.11 in 10.0 mi WNW 11.5 mph - N/A   Clear
9:33 PM 19.4 °F 7.2 °F 6.8 °F 58% 30.11 in 10.0 mi WNW 11.5 mph - N/A   Clear
9:53 PM 17.6 °F 6.4 °F 6.8 °F 63% 30.12 in 10.0 mi WNW 9.2 mph - N/A   Clear
10:14 PM 17.6 °F 5.7 °F 6.8 °F 63% 30.13 in 10.0 mi WNW 10.4 mph - N/A   Clear
10:33 PM 15.8 °F 4.2 °F 6.8 °F 68% 30.13 in 10.0 mi WNW 9.2 mph - N/A   Clear
10:53 PM 15.8 °F 6.1 °F 6.8 °F 68% 30.14 in 10.0 mi WNW 6.9 mph - N/A   Clear
11:13 PM 15.8 °F 6.1 °F 6.8 °F 68% 30.14 in 10.0 mi WNW 6.9 mph - N/A   Clear
11:34 PM 15.8 °F 5.1 °F 5.0 °F 62% 30.14 in 10.0 mi WNW 8.1 mph - N/A   Clear
11:53 PM 15.8 °F 6.1 °F 5.0 °F 62% 30.15 in 10.0 mi WNW 6.9 mph - N/A   Clear